This is the latest recevied weather packets stored in our database for station/object KN6WGU. If no packets are shown the sender has not sent any weather packets the latest 10 day(s).
| Time | Temp. | Humidity | Pressure | Rain* | Wind** | Luminosity | Snow |
|---|---|---|---|---|---|---|---|
| 1787449076 | 21.67° C | 85% | 1003.5 hPa | 0 mm | - | 0 W/m² | - |
| 1787448771 | 21.67° C | 86% | 1003.6 hPa | 0 mm | - | 0 W/m² | - |
| 1787448468 | 21.67° C | 86% | 1003.5 hPa | 0 mm | - | 0 W/m² | - |
| 1787448164 | 21.67° C | 86% | 1003.4 hPa | 0 mm | - | 0 W/m² | - |
| 1787447863 | 21.67° C | 88% | 1003.5 hPa | 0 mm | - | 0 W/m² | - |
| 1787447563 | 21.67° C | 88% | 1003.6 hPa | 0 mm | - | 0 W/m² | - |
| 1787447259 | 21.67° C | 88% | 1003.3 hPa | 0 mm | - | 0 W/m² | - |
| 1787446956 | 21.67° C | 88% | 1003.5 hPa | 0 mm | - | 0 W/m² | - |
| 1787446655 | 21.67° C | 88% | 1003.5 hPa | 0 mm | - | 0 W/m² | - |
| 1787446351 | 21.67° C | 88% | 1003.2 hPa | 0 mm | - | 0 W/m² | - |
| 1787446047 | 21.67° C | 88% | 1003.2 hPa | 0 mm | - | 0 W/m² | - |
| 1787445742 | 21.67° C | 88% | 1003.2 hPa | 0 mm | - | 0 W/m² | - |
| 1787445439 | 21.67° C | 88% | 1003.1 hPa | 0 mm | - | 0 W/m² | - |
| 1787445133 | 21.67° C | 88% | 1003.1 hPa | 0 mm | - | 0 W/m² | - |
| 1787444828 | 22.22° C | 88% | 1003 hPa | 0 mm | - | 1 W/m² | - |
| 1787444526 | 22.22° C | 88% | 1003.2 hPa | 0 mm | - | 1 W/m² | - |
| 1787444221 | 22.22° C | 87% | 1003.1 hPa | 0 mm | - | 2 W/m² | - |
| 1787443921 | 22.22° C | 86% | 1003.1 hPa | 0 mm | - | 6 W/m² | - |
| 1787443619 | 22.22° C | 88% | 1003.1 hPa | 0 mm | - | 8 W/m² | - |
| 1787443315 | 21.67° C | 89% | 1002.9 hPa | 0 mm | - | 5 W/m² | - |
| 1787443014 | 21.67° C | 90% | 1003 hPa | 0 mm | - | 6 W/m² | - |
| 1787442710 | 21.67° C | 89% | 1003 hPa | 0 mm | - | 11 W/m² | - |
| 1787442406 | 21.67° C | 90% | 1002.9 hPa | 0 mm | - | 18 W/m² | - |
| 1787442105 | 22.22° C | 90% | 1002.6 hPa | 0 mm | - | 20 W/m² | - |
| 1787441801 | 21.67° C | 90% | 1002.6 hPa | 0 mm | - | 10 W/m² | - |
* Rain latest hour (hover to see other rain measurements)
** Current wind speed in m/s (hover to see current wind gust speed)